Location: Leipzig
(51.3397°N, 12.3731°E)
Time: 19:21:41
(UTC+01:00)

ISS - Pass Details

Date: 25 October 2025
Orbit: 414 x 421 km, 51.6° (Epoch: 07 November)

Event Time Altitude Azimuth Distance (km) Brightness Sun altitude
Exits shadow 06:24:18 29° 274° (W) 798 -2.9 -14.2°
Maximum altitude 06:25:53 83° 359° (N) 429 -3.8 -13.9°
Drops below altitude 10° 06:29:16 10° 88° (E) 1,506 0.5 -13.4°
Sets 06:31:23 0° 90° (E) 2,372 2.1 -13.1°
